Hourly Data Report for June 24, 2012

HALIFAX STANFIELD INT'L A
NOVA SCOTIA

44°52'48.060" N
63°30'00.050" W
145.40 m
8202250
71395
YHZ

Download Data

Hourly Data (June 2012)
Hourly Data Report for June 24, 2012
TIME
LST
Temp Definition
°C
Dew Point Definition
°C
Rel Hum Definition
%
Precip. Amount Definition
mm

Wind Dir Definition
10's deg

Wind Spd Definition
km/h
Visibility Definition
km
Stn Press Definition
kPa
Hmdx Definition


Wind Chill Definition


Weather Definition


00:00 13.6 13.6 100   14 26 3.2 99.37     Rain Showers, Fog
01:00 13.6 13.6 100   13 26 0.8 99.31     Drizzle, Fog
02:00 13.7 13.6 99   14 28 1.2 99.27     Drizzle, Fog
03:00 13.6 13.6 100   14 28 2.4 99.23     Drizzle, Fog
04:00 13.4 13.4 100   14 20 0.4 99.22     Drizzle, Fog
05:00 13.4 13.4 100   13 26 0.4 99.18     Drizzle, Fog
06:00 13.4 13.4 100   14 19 0.4 99.19     Fog
07:00 13.5 13.5 100   15 15 0.4 99.17     Fog
08:00 14.0 14.0 100   14 17 0.4 99.17     Fog
09:00 14.4 14.4 100   15 17 0.4 99.17     Fog
10:00 14.9 14.9 100   16 17 0.4 99.14     Fog
11:00 15.9 15.9 100   16 17 0.8 99.14     Fog
12:00 16.6 16.2 97   16 9 1.6 99.12     Fog
13:00 16.7 16.2 97   17 11 1.6 99.10     Fog
14:00 17.3 16.4 94   18 13 1.6 99.06     Fog
15:00 17.1 15.9 93   16 17 9.7 99.05     Fog
16:00 16.3 15.5 95   19 11 4.8 99.02     Fog
17:00 16.2 15.5 96   20 11 6.4 99.04     Fog
18:00 16.4 14.6 89   20 15 9.7 99.04     Fog
19:00 15.4 14.2 93   25 15 12.9 99.09     Cloudy
20:00 14.9 14.6 98   24 9 1.2 99.13     Drizzle, Fog
21:00 15.0 14.6 97   30 11 12.9 99.21     Cloudy
22:00 14.8 14.6 99   27 15 6.4 99.22     Fog
23:00 15.0 14.6 97   28 15 24.1 99.25     Cloudy

Notes on Data Quality.

Legend

  • E = Estimated
  • M = Missing
  • NA = Not Available*
  • [empty] = Indicates an unobserved value
Date modified: